CW7253 Weather Reports


time (UTC)temp
C
wind
direction
speed
KPH
gust
KPH
rain 1hr
cm
rain 24hr
cm
rain mn
cm
humidity
%
barometer
mb
20260506044754 21 147 0.0 6.4 0.00 0.00 0.00 53 1008.3
20260506044240 21 143 0.0 4.8 0.00 0.00 0.00 53 1008.3
20260506043741 21 173 0.0 4.8 0.00 0.00 0.00 52 1008.3
20260506043235 21 171 0.0 8.0 0.00 0.00 0.00 52 1008.2
20260506042730 21 171 0.0 8.0 0.00 0.00 0.00 52 1008.1
20260506042455 21 171 0.0 9.7 0.00 0.00 0.00 52 1008.2
20260506041713 21 171 0.0 12.9 0.00 0.00 0.00 51 1008.2
20260506041441 21 184 0.0 12.9 0.00 0.00 0.00 51 1008.3
20260506040702 21 185 0.0 9.7 0.00 0.00 0.00 50 1008.3
20260506040427 21 185 0.0 9.7 0.00 0.00 0.00 50 1008.3
20260506035649 21 186 0.0 8.0 0.00 0.00 0.00 50 1008.3
20260506035136 21 186 1.6 11.3 0.00 0.00 0.00 50 1008.3
20260506034637 21 187 0.0 11.3 0.00 0.00 0.00 50 1008.3
20260506034126 21 186 0.0 4.8 0.00 0.00 0.00 50 1008.3
20260506033625 21 186 0.0 4.8 0.00 0.00 0.00 49 1008.4
20260506033119 21 186 0.0 11.3 0.00 0.00 0.00 49 1008.3
20260506032613 21 186 0.0 11.3 0.00 0.00 0.00 49 1008.2
20260506032107 22 186 0.0 4.8 0.00 0.00 0.00 49 1008.3
20260506031554 22 188 0.0 6.4 0.00 0.00 0.00 48 1008.3
20260506031055 22 184 0.0 9.7 0.00 0.00 0.00 48 1008.3
20260506030548 22 250 0.0 9.7 0.00 0.00 0.00 48 1008.2
20260506030314 22 166 0.0 6.4 0.00 0.00 0.00 48 1008.2
20260506025808 22 166 1.6 14.5 0.00 0.00 0.00 47 1008.2
20260506025257 22 134 0.0 14.5 0.00 0.00 0.00 47 1008.2
20260506024529 22 155 0.0 11.3 0.00 0.00 0.00 47 1008.2
20260506024019 22 156 0.0 11.3 0.00 0.00 0.00 47 1008.3
20260506023513 22 169 0.0 6.4 0.00 0.00 0.00 47 1008.4
20260506023007 22 165 0.0 8.0 0.00 0.00 0.00 47 1008.3
20260506022501 22 165 0.0 8.0 0.00 0.00 0.00 47 1008.3
20260506021959 22 169 0.0 4.8 0.00 0.00 0.00 47 1008.3
20260506021441 22 169 0.0 4.8 0.00 0.00 0.00 46 1008.2
20260506020943 22 173 0.0 0.0 0.00 0.00 0.00 47 1008.2
20260506020436 22 173 0.0 0.0 0.00 0.00 0.00 46 1008.2
20260506015924 22 173 0.0 4.8 0.00 0.00 0.00 46 1008.1
20260506015423 23 173 0.0 8.0 0.00 0.00 0.00 46 1008.1
20260506014916 23 172 0.0 8.0 0.00 0.00 0.00 46 1008.1
20260506014411 23 175 0.0 6.4 0.00 0.00 0.00 46 1008.0
20260506013904 23 178 0.0 1.6 0.00 0.00 0.00 47 1008.0
20260506013359 23 178 0.0 9.7 0.00 0.00 0.00 47 1008.0
20260506012853 23 177 0.0 9.7 0.00 0.00 0.00 47 1008.0
20260506012340 23 146 0.0 0.0 0.00 0.00 0.00 47 1007.9
20260506011840 23 146 0.0 6.4 0.00 0.00 0.00 47 1007.8
20260506011335 23 146 0.0 6.4 0.00 0.00 0.00 47 1007.7
20260506011100 23 144 0.0 9.7 0.00 0.00 0.00 47 1007.7
20260506010322 23 144 0.0 9.7 0.00 0.00 0.00 46 1007.6
20260506005810 23 142 0.0 6.4 0.00 0.00 0.00 46 1007.6
20260506005311 23 142 0.0 6.4 0.00 0.00 0.00 46 1007.5
20260506004805 23 140 0.0 8.0 0.00 0.00 0.00 45 1007.5
20260506004259 23 140 0.0 8.0 0.00 0.00 0.00 45 1007.5
20260506003756 24 136 0.0 9.7 0.00 0.00 0.00 45 1007.3
20260506003748 24 136 0.0 9.7 0.00 0.00 0.00 45 1007.2
20260506002741 24 184 0.0 6.4 0.00 0.00 0.00 44 1007.2
20260506002228 24 184 0.0 6.4 0.00 0.00 0.00 43 1007.1
20260506001729 24 195 0.0 0.0 0.00 0.00 0.00 43 1007.0
20260506001453 25 194 0.0 3.2 0.00 0.00 0.00 43 1007.0
20260506000717 25 194 0.0 3.2 0.00 0.00 0.00 42 1007.1
20260506000212 25 191 0.0 1.6 0.00 0.00 0.00 42 1007.1
20260505235700 25 193 0.0 14.5 0.00 0.00 0.00 41 1007.0
20260505235156 25 155 0.0 14.5 0.00 0.00 0.00 41 1006.9
20260505234651 25 193 0.0 8.0 0.00 0.00 0.00 40 1006.9
20260505234138 25 191 0.0 14.5 0.00 0.00 0.00 41 1006.9
20260505233639 25 240 1.6 14.5 0.00 0.00 0.00 40 1006.9
20260505233132 26 198 1.6 12.9 0.00 0.00 0.00 40 1006.8
20260505232626 26 234 1.6 16.1 0.00 0.00 0.00 39 1006.9
20260505232121 26 234 1.6 16.1 0.00 0.00 0.00 39 1006.8
20260505231615 26 200 0.0 14.5 0.00 0.00 0.00 40 1006.8
20260505231105 26 243 0.0 16.1 0.00 0.00 0.00 40 1006.7
20260505230834 26 225 0.0 16.1 0.00 0.00 0.00 40 1006.7
20260505230328 26 173 1.6 9.7 0.00 0.00 0.00 41 1006.7
20260505225821 26 184 1.6 12.9 0.00 0.00 0.00 40 1006.6
20260505225045 26 240 1.6 9.7 0.00 0.00 0.00 41 1006.6
20260505224539 26 231 0.0 8.0 0.00 0.00 0.00 41 1006.6
20260505224028 26 159 0.0 9.7 0.00 0.00 0.00 41 1006.6
20260505223527 26 186 0.0 12.9 0.00 0.00 0.00 41 1006.6
20260505223020 27 256 1.6 17.7 0.00 0.00 0.00 42 1006.7
20260505222515 27 221 1.6 17.7 0.00 0.00 0.00 40 1006.7
20260505222004 27 229 3.2 25.7 0.00 0.00 0.00 40 1006.8
20260505221730 27 250 3.2 25.7 0.00 0.00 0.00 41 1006.8
20260505220957 27 213 1.6 11.3 0.00 0.00 0.00 41 1006.8
20260505220451 27 209 1.6 14.5 0.00 0.00 0.00 42 1006.7
20260505215944 27 212 1.6 16.1 0.00 0.00 0.00 41 1006.7
20260505215439 27 172 1.6 16.1 0.00 0.00 0.00 41 1006.6
20260505214932 27 199 1.6 16.1 0.00 0.00 0.00 41 1006.7
20260505214427 27 207 3.2 16.1 0.00 0.00 0.00 41 1006.8
20260505213916 27 248 4.8 14.5 0.00 0.00 0.00 41 1006.7
20260505213415 27 209 3.2 16.1 0.00 0.00 0.00 40 1006.7
20260505213135 28 173 1.6 16.1 0.00 0.00 0.00 41 1006.7
20260505212403 28 199 1.6 8.0 0.00 0.00 0.00 41 1006.6
20260505211857 28 232 1.6 19.3 0.00 0.00 0.00 40 1006.6
20260505211344 28 244 4.8 29.0 0.00 0.00 0.00 40 1006.6
20260505210844 27 243 4.8 29.0 0.00 0.00 0.00 40 1006.5
20260505210339 28 215 3.2 17.7 0.00 0.00 0.00 39 1006.6
20260505205833 28 260 3.2 17.7 0.00 0.00 0.00 40 1006.7
20260505205326 28 210 4.8 27.4 0.00 0.00 0.00 42 1006.6
20260505204820 27 234 6.4 27.4 0.00 0.00 0.00 40 1006.6
20260505204314 27 246 4.8 20.9 0.00 0.00 0.00 39 1006.5
20260505203805 28 232 1.6 17.7 0.00 0.00 0.00 39 1006.7
20260505203303 28 205 3.2 16.1 0.00 0.00 0.00 40 1006.6
20260505202757 27 189 3.2 17.7 0.00 0.00 0.00 42 1006.5
20260505202522 27 178 3.2 17.7 0.00 0.00 0.00 43 1006.6
20260505201745 27 190 3.2 20.9 0.00 0.00 0.00 42 1006.8
20260505201234 27 157 3.2 20.9 0.00 0.00 0.00 42 1006.8
20260505200732 27 240 3.2 19.3 0.00 0.00 0.00 42 1006.7
20260505200227 27 258 3.2 19.3 0.00 0.00 0.00 42 1006.8
20260505195726 27 244 3.2 20.9 0.00 0.00 0.00 42 1007.0
20260505195720 27 242 3.2 20.9 0.00 0.00 0.00 43 1007.0
20260505194704 27 183 3.2 22.5 0.00 0.00 0.00 41 1007.0
20260505194203 27 250 3.2 22.5 0.00 0.00 0.00 43 1007.0
20260505193652 27 190 3.2 14.5 0.00 0.00 0.00 43 1007.0
20260505193156 27 209 1.6 22.5 0.00 0.00 0.00 42 1007.1
20260505193150 27 215 3.2 17.7 0.00 0.00 0.00 42 1007.1
20260505192138 27 186 1.6 22.5 0.00 0.00 0.00 44 1007.2
20260505191633 27 216 3.2 22.5 0.00 0.00 0.00 43 1007.2
20260505191122 27 242 4.8 17.7 0.00 0.00 0.00 42 1007.3
20260505190620 27 195 4.8 19.3 0.00 0.00 0.00 42 1007.3
20260505190110 27 261 1.6 19.3 0.00 0.00 0.00 42 1007.4
20260505185604 27 248 3.2 22.5 0.00 0.00 0.00 44 1007.4
20260505185333 27 250 3.2 22.5 0.00 0.00 0.00 41 1007.6
20260505184828 27 234 3.2 19.3 0.00 0.00 0.00 43 1007.7
20260505184050 27 248 3.2 19.3 0.00 0.00 0.00 44 1007.7
20260505183541 27 205 4.8 19.3 0.00 0.00 0.00 44 1007.7
20260505183039 27 273 4.8 19.3 0.00 0.00 0.00 44 1007.7
20260505182533 27 287 1.6 12.9 0.00 0.00 0.00 45 1007.7
20260505182027 27 217 3.2 17.7 0.00 0.00 0.00 46 1007.8
20260505181521 27 246 3.2 17.7 0.00 0.00 0.00 44 1007.8
20260505181010 27 209 4.8 20.9 0.00 0.00 0.00 44 1007.9
20260505180504 27 246 4.8 20.9 0.00 0.00 0.00 45 1008.0
20260505175955 27 198 3.2 22.5 0.00 0.00 0.00 46 1008.0
20260505175457 27 241 4.8 22.5 0.00 0.00 0.00 45 1008.0
20260505174951 27 251 3.2 17.7 0.00 0.00 0.00 45 1008.1
20260505174444 27 193 3.2 25.7 0.00 0.00 0.00 47 1008.0
20260505173939 27 178 4.8 25.7 0.00 0.00 0.00 46 1008.1
20260505173428 27 242 3.2 16.1 0.00 0.00 0.00 46 1008.1
20260505172926 27 186 1.6 16.1 0.00 0.00 0.00 45 1008.1
20260505172420 26 240 3.2 20.9 0.00 0.00 0.00 48 1008.2
20260505172146 26 211 4.8 20.9 0.00 0.00 0.00 47 1008.4
20260505171404 26 232 3.2 17.7 0.00 0.00 0.00 50 1008.2
20260505170858 26 245 3.2 17.7 0.00 0.00 0.00 52 1008.4
20260505170357 26 262 3.2 16.1 0.00 0.00 0.00 49 1008.5
20260505165850 26 215 3.2 17.7 0.00 0.00 0.00 50 1008.6
20260505165345 26 242 4.8 25.7 0.00 0.00 0.00 47 1008.7
20260505164839 26 258 6.4 25.7 0.00 0.00 0.00 50 1008.8
20260505164328 26 248 4.8 17.7 0.00 0.00 0.00 48 1008.7
20260505163827 26 249 6.4 24.1 0.00 0.00 0.00 51 1008.9
20260505163321 26 251 4.8 24.1 0.00 0.00 0.00 50 1009.0
20260505162814 26 248 3.2 22.5 0.00 0.00 0.00 51 1009.0
20260505162306 26 257 4.8 22.5 0.00 0.00 0.00 49 1009.1
20260505161803 26 246 4.8 22.5 0.00 0.00 0.00 50 1009.1
20260505161256 26 244 3.2 16.1 0.00 0.00 0.00 50 1009.2
20260505160747 26 260 4.8 17.7 0.00 0.00 0.00 50 1009.1
20260505160245 25 240 3.2 17.7 0.00 0.00 0.00 51 1009.1
20260505153204 25 258 4.8 20.9 0.00 0.00 0.00 52 1009.2
20260505152703 25 248 3.2 20.9 0.00 0.00 0.00 52 1009.1
20260505152156 25 194 1.6 11.3 0.00 0.00 0.00 53 1009.1
20260505151650 25 240 1.6 12.9 0.00 0.00 0.00 52 1009.2
20260505151415 24 240 1.6 12.9 0.00 0.00 0.00 53 1009.3
20260505150906 24 200 1.6 19.3 0.00 0.00 0.00 55 1009.2
20260505150132 24 248 1.6 19.3 0.00 0.00 0.00 56 1009.2
20260505124350 19 122 0.0 4.8 0.00 0.00 0.00 70 1010.4
20260505123838 18 118 0.0 0.0 0.00 0.00 0.00 71 1010.3
20260505123338 18 118 0.0 0.0 0.00 0.00 0.00 73 1010.4
20260505122833 18 118 0.0 0.0 0.00 0.00 0.00 72 1010.4
20260505122326 18 118 0.0 1.6 0.00 0.00 0.00 73 1010.3
20260505121820 17 118 0.0 1.6 0.00 0.00 0.00 73 1010.3
20260505121314 17 117 0.0 0.0 0.00 0.00 0.00 74 1010.3
20260505120805 17 117 0.0 0.0 0.00 0.00 0.00 75 1010.2
20260505120256 17 117 0.0 3.2 0.00 0.00 0.00 76 1010.2
20260505115757 16 117 0.0 3.2 0.00 0.00 0.00 77 1010.1
20260505115251 16 117 0.0 0.0 0.00 0.00 0.00 78 1010.0
20260505114744 16 117 0.0 0.0 0.00 0.00 0.00 79 1010.0
20260505114238 15 117 0.0 0.0 0.00 0.00 0.00 80 1010.0
20260505113725 15 117 0.0 0.0 0.00 0.00 0.00 84 1010.0
20260505113226 14 117 0.0 0.0 0.00 0.00 0.00 84 1009.8
20260505112720 14 117 0.0 0.0 0.00 0.00 0.00 84 1009.8
20260505112214 14 117 0.0 0.0 0.00 0.00 0.00 83 1009.8
20260505111708 14 117 0.0 0.0 0.00 0.00 0.00 82 1009.8
20260505111154 14 117 0.0 0.0 0.00 0.00 0.00 82 1009.8
20260505110654 14 117 0.0 0.0 0.00 0.00 0.00 82 1009.9
20260505110419 14 117 0.0 0.0 0.00 0.00 0.00 81 1009.9
20260505102043 12 117 0.0 0.0 0.00 0.00 0.00 85 1009.3
20260505101541 12 117 0.0 0.0 0.00 0.00 0.00 86 1009.2
20260505101039 12 117 0.0 0.0 0.00 0.00 0.00 86 1009.1
20260505100812 12 117 0.0 0.0 0.00 0.00 0.00 86 1009.1
20260505100039 12 117 0.0 0.0 0.00 0.00 0.00 86 1009.2
20260505095811 12 117 0.0 0.0 0.00 0.00 0.00 85 1009.2
20260505095039 12 117 0.0 0.0 0.00 0.00 0.00 84 1009.2
20260505094541 12 117 0.0 0.0 0.00 0.00 0.00 84 1009.1
20260505094313 12 117 0.0 0.0 0.00 0.00 0.00 83 1009.3
20260505093536 13 117 0.0 0.0 0.00 0.00 0.00 83 1009.2
20260505093255 13 117 0.0 0.0 0.00 0.00 0.00 83 1009.2
20260505092512 13 117 0.0 0.0 0.00 0.00 0.00 83 1009.1
20260505092000 12 117 0.0 0.0 0.00 0.00 0.00 83 1009.1
20260505091719 13 117 0.0 0.0 0.00 0.00 0.00 83 1009.2
20260505090936 13 117 0.0 0.0 0.00 0.00 0.00 82 1008.9
20260505090436 13 117 0.0 0.0 0.00 0.00 0.00 82 1008.8
20260505085935 13 117 0.0 0.0 0.00 0.00 0.00 81 1008.8
20260505085436 13 117 0.0 0.0 0.00 0.00 0.00 80 1009.0
20260505084936 13 117 0.0 0.0 0.00 0.00 0.00 80 1008.9
20260505084436 13 117 0.0 0.0 0.00 0.00 0.00 79 1008.9
20260505083934 13 117 0.0 0.0 0.00 0.00 0.00 79 1008.9
20260505083438 14 117 0.0 0.0 0.00 0.00 0.00 78 1008.8
20260505082938 14 117 0.0 0.0 0.00 0.00 0.00 78 1008.8
20260505082703 14 117 0.0 0.0 0.00 0.00 0.00 78 1008.7
20260505081920 14 117 0.0 0.0 0.00 0.00 0.00 78 1008.7
20260505081419 14 117 0.0 0.0 0.00 0.00 0.00 78 1008.7
20260505080918 14 117 0.0 0.0 0.00 0.00 0.00 77 1008.8
20260505080651 15 117 0.0 0.0 0.00 0.00 0.00 76 1008.7
20260505075919 15 117 0.0 0.0 0.00 0.00 0.00 75 1008.7
20260505075419 15 117 0.0 0.0 0.00 0.00 0.00 74 1008.7
20260505074919 15 117 0.0 0.0 0.00 0.00 0.00 73 1008.7
20260505074421 16 117 0.0 0.0 0.00 0.00 0.00 73 1008.7
20260505074153 16 117 0.0 0.0 0.00 0.00 0.00 73 1008.6
20260505073416 16 117 0.0 0.0 0.00 0.00 0.00 71 1008.6
20260505072904 16 117 0.0 0.0 0.00 0.00 0.00 71 1008.6
20260505072352 16 117 0.0 0.0 0.00 0.00 0.00 69 1008.5
20260505071840 16 117 0.0 0.0 0.00 0.00 0.00 68 1008.5
20260505071328 16 117 0.0 0.0 0.00 0.00 0.00 69 1008.5
20260505071048 17 117 0.0 0.0 0.00 0.00 0.00 69 1008.5
20260505070301 17 117 0.0 0.0 0.00 0.00 0.00 68 1008.5
20260505065750 17 117 0.0 0.0 0.00 0.00 0.00 68 1008.5
20260505065238 17 117 0.0 0.0 0.00 0.00 0.00 68 1008.6
20260505064725 17 117 0.0 0.0 0.00 0.00 0.00 68 1008.6
20260505064214 16 117 0.0 0.0 0.00 0.00 0.00 68 1008.7
20260505063716 16 117 0.0 0.0 0.00 0.00 0.00 68 1008.6
20260505063214 16 117 0.0 0.0 0.00 0.00 0.00 68 1008.7
20260505062714 16 117 0.0 0.0 0.00 0.00 0.00 68 1008.7
20260505062214 16 117 0.0 3.2 0.00 0.00 0.00 67 1008.8
20260505061716 16 117 0.0 3.2 0.00 0.00 0.00 68 1008.9
20260505061214 16 117 0.0 0.0 0.00 0.00 0.00 67 1008.9
20260505060714 16 117 0.0 0.0 0.00 0.00 0.00 67 1008.9
20260505060216 16 117 0.0 0.0 0.00 0.00 0.00 67 1008.8
20260505055709 16 117 0.0 0.0 0.00 0.00 0.00 67 1008.9
20260505055206 16 117 0.0 0.0 0.00 0.00 0.00 67 1008.8
20260505054706 16 117 0.0 0.0 0.00 0.00 0.00 67 1008.8
20260505054209 16 117 0.0 0.0 0.00 0.00 0.00 67 1008.9
20260505053938 16 117 0.0 0.0 0.00 0.00 0.00 67 1008.9
20260505053206 16 117 0.0 0.0 0.00 0.00 0.00 67 1008.9
20260505052707 16 117 0.0 0.0 0.00 0.00 0.00 66 1009.0
20260505052204 17 117 0.0 0.0 0.00 0.00 0.00 66 1009.0
20260505051705 17 117 0.0 0.0 0.00 0.00 0.00 65 1008.9
20260505051204 17 117 0.0 0.0 0.00 0.00 0.00 65 1008.8
20260505050933 17 117 0.0 0.0 0.00 0.00 0.00 65 1008.7
20260505050424 17 117 0.0 1.6 0.00 0.00 0.00 65 1008.7